www.pogodaiklimat.ru

Погода и климат >> Архив погоды >> Южная Африка >> Маунт Эджком


ПОГОДА в Маунт Эджком

  • Прогноз погоды в Маунт Эджком
  • Монитор погоды в Маунт Эджком

АРХИВ ПОГОДЫ в Маунт Эджком

Время (UTC), дата Ветер
(напр.,м/с)
 
Видим.   Явления Облачность Т
(С)
Тd
(С)
f
(%)
Тe
(С)
Тes
(С)
Комфортность P
(гПа)
Po
(гПа)
Тmin
(С)
Tmax
(С)
R
(мм)
R24
(мм)
S
(см)
12 17.06 ЮВ 1 н/о н/о +27.0 +10.5 36 +28 +28 жарко 1021.4 1010.6 +7.9 +27.5
15 17.06 штиль 0 н/о н/о +17.4 +10.3 63 +17 +17 1022.2 1011.0 +17.4 +27.5
18 17.06 штиль 0 н/о н/о +12.3 +9.1 81 +12 +12 1023.5 1012.1 +12.0 +27.5 0.2
21 17.06 штиль 0 н/о н/о +10.7 +7.9 83 +10 +10 1024.3 1012.8 +10.2 +27.5
00 18.06 штиль 0 н/о н/о +9.3 +5.5 77 +9 +9 1024.5 1013.0 +9.2 +27.5 0.2
03 18.06 З 1 н/о н/о +10.6 +4.5 66 +10 +10 1025.3 1013.8 +8.9 +27.5
06 18.06 ЮЗ 2 н/о н/о +15.4 +3.9 46 +16 +16 1027.0 1015.7 +8.9 0.2
09 18.06 З 2 н/о н/о +27.3 +6.4 26 +27 +27 жарко 1028.0 1017.1 +8.9 +27.3
12 18.06 Ю 3 н/о н/о +26.8 +11.9 40 +28 +28 жарко 1026.3 1015.4 +8.9 +28.7
15 18.06 Ю 3 н/о н/о +21.6 +16.8 74 +26 +26 душно 1027.6 1016.5 +21.5 +28.7
18 18.06 штиль 0 н/о н/о +16.9 +14.5 86 +17 +17 1030.0 1018.7 +16.9 +28.7
21 18.06 штиль 0 н/о н/о +15.9 +14.4 91 +16 +16 1031.6 1020.3 +15.6 +28.7
00 19.06 З 1 н/о н/о +14.6 +13.4 93 +15 +15 1031.0 1019.6 +14.3 +28.7
03 19.06 штиль 0 н/о н/о +14.1 +12.9 92 +14 +14 1030.5 1019.1 +13.8 +28.7
06 19.06 ЮЗ 2 н/о н/о +14.5 +13.0 91 +14 +14 1031.5 1020.1 +13.4
09 19.06 штиль 0 н/о н/о +23.4 +14.0 56 +27 +27 душно 1030.6 1019.6 +13.4 +24.6
12 19.06 В 2 н/о н/о +23.8 +15.7 60 +27 +27 жарко 1028.2 1017.2 +13.4 +25.5
15 19.06 СВ 2 н/о н/о +18.7 +14.0 74 +20 +20 1028.6 1017.4 +18.7 +25.5
18 19.06 СВ 2 н/о н/о +16.8 +12.8 77 +17 +17 1029.6 1018.3 +16.8 +25.5
21 19.06 СВ 1 н/о н/о +14.3 +11.3 82 +15 +15 1029.4 1018.0 +14.3 +25.5
00 20.06 штиль 0 н/о н/о +11.3 +9.8 90 +11 +11 1028.9 1017.4 +11.1 +25.5
03 20.06 штиль 0 н/о н/о +10.1 +8.5 90 +9 +9 1028.2 1016.7 +9.7 +25.5
06 20.06 штиль 0 н/о н/о +11.5 +10.2 92 +11 +11 1028.8 1017.3 +9.7
09 20.06 СВ 1 н/о н/о +22.3 +10.9 48 +24 +24 комфорт 1028.3 1017.2 +9.7 +22.5
12 20.06 В 3 н/о н/о +24.5 +15.0 55 +27 +27 жарко 1025.4 1014.5 +9.7 +25.4
18 20.06 В 2 н/о н/о +16.7 +13.2 80 +17 +17 1025.7 1014.5 +16.7 +25.4
21 20.06 штиль 0 н/о н/о +13.5 +11.2 86 +13 +13 1025.1 1013.7 +13.5 +25.4
00 21.06 штиль 0 н/о н/о +9.7 +7.8 88 +9 +9 1024.4 1012.9 +9.7 +25.4
03 21.06 штиль 0 н/о н/о +7.8 +6.4 91 +7 +7 1023.5 1011.9 +7.8 +25.4
06 21.06 штиль 0 н/о н/о +9.7 +7.3 85 +9 +9 1022.9 1011.4 +7.0
09 21.06 СВ 3 н/о н/о +25.2 +5.6 28 +25 +25 комфорт 1020.3 1009.4 +7.0 +25.2
12 21.06 В 2 н/о н/о +28.8 +10.7 32 +29 +29 жарко 1016.9 1006.2 +7.0 +29.2
15 21.06 СВ 2 н/о н/о +22.8 +13.1 54 +26 +26 жарко 1015.9 1005.0 +22.8 +29.2
18 21.06 СВ 2 н/о н/о +19.3 +10.9 58 +21 +21 комфорт 1016.1 1005.1 +19.3 +29.2
21 21.06 штиль 0 н/о н/о +13.3 +7.9 70 +13 +13 1016.5 1005.2 +13.3 +29.2
00 22.06 штиль 0 н/о н/о +10.0 +6.5 79 +9 +9 1016.5 1005.1 +9.8 +29.2
03 22.06 З 1 н/о н/о +11.1 +3.2 58 +11 +11 1016.4 1005.0 +9.6 +29.2
06 22.06 З 1 н/о н/о +15.1 +1.7 40 +16 +16 1017.3 1006.1 +9.6
09 22.06 З 1 н/о н/о +28.3 +4.8 22 +27 +27 жарко 1017.2 1006.5 +9.6 +28.3
18 22.06 СЗ 1 н/о н/о +13.6 +8.0 69 +14 +14 1016.8 1005.5 +13.6 +29.8
21 22.06 штиль 0 н/о н/о +11.9 +6.8 71 +11 +11 1017.0 1005.7 +11.6 +29.8
00 23.06 З 2 н/о н/о +13.4 +8.7 73 +13 +13 1017.2 1005.9 +11.6 +29.8
03 23.06 З 1 н/о н/о +13.7 +8.3 70 +14 +14 1016.8 1005.5 +11.6 +29.8
09 23.06 ЮЗ 2 н/о н/о +24.6 +7.0 32 +25 +25 комфорт 1018.1 1007.2 +11.6 +24.6
12 23.06 Ю 3 н/о н/о +25.2 +8.4 34 +26 +26 жарко 1016.0 1005.2 +11.6 +25.8
15 23.06 Ю 1 н/о н/о +20.0 +11.6 58 +23 +23 комфорт 1017.7 1006.7 +20.0 +25.8
18 23.06 штиль 0 н/о н/о +14.2 +10.2 77 +14 +14 1019.5 1008.2 +14.2 +25.8
21 23.06 З 1 н/о н/о +13.7 +9.3 75 +14 +14 1019.8 1008.5 +13.1 +25.8
00 24.06 З 1 н/о н/о +13.7 +8.3 70 +14 +14 1019.4 1008.1 +13.1 +25.8
03 24.06 З 1 н/о н/о +11.6 +7.7 77 +11 +11 1019.4 1008.0 +11.5 +25.8
06 24.06 З 2 н/о н/о +13.7 +7.5 66 +14 +14 1020.4 1009.1 +11.4

 

Местоположение метеостанции Маунт Эджком (Южная Африка): широта -29.70 долгота 31.05 высота над уровнем моря 94 м.

В архиве по умолчанию представлена погода в Маунт Эджком за последнюю неделю. Архивные данные за месяц целиком и за предыдущие месяцы, начиная с января 2011 года, Вы можете получить, выбрав интересующий диапазон дат из раскрывающегося списка и нажав кнопку "Ввод!".


*Определитесь, кто Вы:
робот инопланетянин человек

Внимание! Время в таблицах - всемирное. Для получения местного времени необходимо прибавить поправку, которая равна 2 ч.

Смотрите также архив погоды в соседних городах и на ближайших метеорологических станциях:

Погода в Аэропорту Вирджиния (Южная Африка) (8 км)
Погода в Аэропорту Кинг Шака (Южная Африка) (13 км)
Погода в Дурбане (Южная Африка) (30 км)
Погода в Питермарицбург аэропорту (Южная Африка) (63 км)
Погода в Питермарицбурге (Южная Африка) (63 км)
Погода в Мандини (Южная Африка) (70 км)
Погода в Цедаре (Южная Африка) (77 км)
Погода в Грейтауне (Южная Африка) (82 км)
Погода в Пеннингтоне (Южная Африка) (84 км)
Погода в Мтунзини (Южная Африка) (105 км)

Пояснения к столбцам:

Ветер - указаны скорость ветра в м/с - средняя за 10 мин, порывы в срок и между сроками (в фигурных скобках) и направление, откуда дует ветер: С - северный, СВ - северо-восточный, В - восточный, ЮВ - юго-восточный, Ю - южный, ЮЗ - юго-западный, З - западный, СЗ - северо-западный.
Видимость - горизонтальная дальность видимости в метрах или километрах. При видимости от 1 до 10 км при отсутствии осадков обычно наблюдается дымка, при ухудшении видимости до 1 км и менее - туман. В сухую погоду видимость может ухудшаться дымом, пылью или мглою.
Явления - указаны атмосферные явления, наблюдавшиеся в срок или в последний час перед сроком; фигурными скобками обозначены явления, наблюдавшиеся между сроками (за 1-3 часа до срока); квадратными скобками обозначены град или гололедные отложения с указанием их диаметра в мм.
Облачность - указаны через наклонную черту общая и нижняя облачность в баллах и высота нижней границы облаков в метрах; квадратными скобками обозначены формы облаков: Ci - перистые, Cs - перисто-слоистые, Cc - перисто-кучевые, Ac - высококучевые, As - высокослоистые, Sc - слоисто-кучевые, Ns - слоисто-дождевые, Cu - кучевые, Cb - кучево-дождевые. Подробнее классификацию облаков см. в Атласе облаков (PDF).
T - Температура воздуха - температура, измеренная на высоте 2 м над землей.
Td - Температура точки росы - температура, при понижении до которой содержащийся в воздухе водяной пар достигнет насыщения.
f - Относительная влажность воздуха - влажноcть воздуха, измеренная на высоте 2 м над землей.
Te - Эффективная температура - температура, которую ощущает одетый по сезону человек в тени. Характеристика душности погоды. При расчете учитывается влияние влажности воздуха и скорости ветра на теплоощущения человека.
Tes - Эффективная температура на солнце - температура, которую ощущает человек, с поправкой на солнечный нагрев. Характеристика знойности погоды. Зависит от высоты солнца над горизонтом, облачности и скорости ветра. Ночью, в пасмурную погоду, а также при ветре 12 м/с и более поправка равна нулю.
P - Атмосферное давление - приведенное к уровню моря атмосферное давление.
Po - Атмосферное давление - измеренное на уровне метеостанции атмосферное давление.
Tmin - Минимальная температура - минимум температуры воздуха на высоте 2 м над землей.
Tmax - Максимальная температура - максимум температуры воздуха на высоте 2 м над землей.
R - Количество осадков - Количество выпавших осадков за период времени, мм. При наведении курсора мыши на число - период времени, за который выпало указанное количество осадков.
R24 - Количество осадков - Количество выпавших осадков за 24 часа, мм.
S - Снежный покров - Высота снежного покрова, см. При наведении курсора мыши на число - состояние снежного покрова и степень покрытия местности в баллах.